[[{"header":{"parameterUnit":"m.s-1","parameterCategory":1,"la1":30.2991,"la2":30.254,"lo1":-89.0895,"lo2":-89.0444,"dy":0.0017,"dx":0.0017,"nx":28,"ny":28,"refTime":"2024-02-02T03:00:00:Z","depth":0,"parameterNumber":2,"parameterNumberName":"U-component_of_WINDS"},"data":[0,0,0,0,0,0,0,0,0,0,0,0,0,0,0,0,0,0,0,0,0,0,0,0,0,0,0,0,0,0,0,0,0,0,0,0,0,0,0,0,0,0,0,0,0,0,0,0,0,0,0,0,0,0,0,0,0,0,-4.4929,-4.493,0,-4.5044,-4.5045,-4.5046,-4.4971,-4.4968,-4.4964,-4.4961,-4.5087,-4.5094,-4.51,0,0,0,0,0,0,0,0,0,0,0,0,0,-4.4655,-4.466,-4.4929,-4.493,-4.4932,-4.5043,-4.5045,-4.5047,-4.4972,-4.4968,-4.4964,-4.496,-4.5085,-4.5093,-4.5101,0,0,0,0,0,0,0,0,0,0,0,0,0,-4.4772,-4.4662,-4.4929,-4.4908,-4.4907,-4.5043,-4.5045,-4.5047,-4.4973,-4.4968,-4.4962,-4.4958,-4.5083,-4.5092,-4.5102,-4.5268,0,0,-4.5132,-4.5137,0,0,0,0,0,0,0,0,-4.4766,-4.4783,-4.491,-4.491,-4.4909,-4.4988,-4.4994,-4.5121,-4.4974,-4.4948,-4.4961,-4.4955,-4.5059,-4.5071,-4.5104,-4.5274,-4.5279,-4.5133,-4.5139,-4.5144,-4.5146,0,0,0,0,0,0,0,-4.4758,-4.4777,-4.4975,-4.4911,-4.4911,-4.4896,-4.4907,-4.5018,-4.5032,-4.495,-4.4945,-4.4959,-4.5058,-4.5095,-4.5106,-4.5281,-4.5133,-4.5142,-4.5148,-4.5152,-4.5594,-4.56,0,0,0,0,0,0,-4.475,-4.4771,-4.4971,-4.4978,-4.4823,-4.4905,-4.4917,-4.4968,-4.503,-4.5035,-4.4963,-4.4955,-4.508,-4.5095,-4.511,-4.5309,-4.5143,-4.5153,-4.5158,-4.5588,-4.5595,-4.5602,0,0,0,0,0,0,-4.4744,-4.4769,-4.4966,-4.4873,-4.4897,-4.4915,-4.4973,-4.4973,-4.5009,-4.504,-4.5043,-4.4997,-4.5077,-4.5097,-4.5229,-4.5312,-4.5157,-4.5166,-4.5582,-4.5591,-4.5599,-4.5707,0,0,0,0,0,0,-4.4737,-4.4767,-4.4828,-4.4875,-4.4902,-4.508,-4.4978,-4.4979,-4.5025,-4.5016,-4.5073,-4.5078,-4.5074,-4.5214,-4.5239,-4.5323,-4.5174,-4.5574,-4.5586,-4.5596,-4.5696,-4.5718,-4.5737,0,0,0,0,0,-4.4727,-4.4855,-4.4831,-4.4856,-4.4978,-4.5085,-4.5101,-4.5092,-4.5032,-4.5095,-4.5115,-4.5076,-4.5299,-4.5229,-4.5255,-4.5344,-4.5569,-4.5582,-4.5595,-4.5687,-4.5714,-4.5737,0,0,0,0,0,0,-4.482,-4.4861,-4.4835,-4.4981,-4.503,-4.5072,-4.5151,-4.5121,-4.5189,-4.5178,-4.5166,-4.518,-4.5318,-4.5345,-4.5265,-4.5508,-4.5425,-4.5444,-4.5486,-4.5512,-4.5532,-4.5523,-4.5182,0,0,0,0,0,-4.4857,-4.4938,-4.497,-4.5097,-4.5122,-4.5133,-4.5179,-4.5167,-4.5219,-4.524,-4.527,-4.5323,-4.5406,-4.546,-4.5538,-4.57,-4.5712,-4.5774,-4.5795,-4.5811,-4.5828,-4.5917,-4.5945,-4.5645,-4.5644,-4.5644,0,0,-4.4936,-4.4968,-4.502,-4.5116,-4.5152,-4.5239,-4.5151,-4.5246,-4.531,-4.5255,-4.5381,-4.5405,-4.5465,-4.5613,-4.568,-4.5639,-4.5914,-4.5828,-4.5841,-4.5849,-4.5933,-4.5962,-4.5987,-4.5653,-4.5652,-4.565,0,0,-4.5122,-4.5154,-4.5263,-4.5301,-4.5356,-4.5362,-4.5389,-4.5436,-4.5449,-4.5575,-4.5535,-4.5614,-4.5756,-4.58,-4.5841,-4.6046,-4.6013,-4.6072,-4.618,-4.6267,-4.629,-4.6311,-4.6385,-4.6412,-4.6089,-4.6089,-4.6089,0,-4.5213,-4.5338,-4.5323,-4.5421,-4.5466,-4.5417,-4.5529,-4.5568,-4.5647,-4.568,-4.5633,-4.581,-4.5847,-4.6005,-4.6055,-4.609,-4.6121,-4.6065,-4.6288,-4.6308,-4.6328,-4.6398,-4.6426,-4.6096,-4.6095,-4.6094,-4.6094,0,-4.5448,-4.5536,-4.5618,-4.5692,-4.5747,-4.5851,-4.5855,-4.5912,-4.5897,-4.5909,-4.6039,-4.6082,-4.6167,-4.6204,-4.6191,-4.6361,-4.6334,-4.6288,-4.6204,-4.6363,-4.6429,-4.6456,-4.6105,-4.6103,-4.6101,-4.6099,0,0,-4.5695,-4.576,-4.579,-4.5824,-4.5882,-4.5952,-4.6056,-4.6136,-4.6186,-4.6244,-4.6332,-4.6453,-4.6411,-4.6458,-4.645,-4.6526,-4.6686,-4.647,-4.6471,-4.6509,-4.6878,-4.6912,-4.6943,-4.6665,-4.667,-4.6674,-4.6873,0,-4.5884,-4.6061,-4.6052,-4.6219,-4.6302,-4.6258,-4.6349,-4.6396,-4.6411,-4.6486,-4.6504,-4.659,-4.6527,-4.6555,-4.6629,-4.6651,-4.676,-4.6637,-4.6749,-4.6753,-4.6734,-4.6978,-4.7014,-4.7199,-4.6899,-4.6903,-4.6906,0,-4.6128,-4.6191,-4.6366,-4.6413,-4.6447,-4.6528,-4.6602,-4.6673,-4.6728,-4.6734,-4.6786,-4.6766,-4.6875,-4.6788,-4.6939,-4.6855,-4.6901,-4.6919,-4.6926,-4.6936,-4.6839,-4.6994,-4.7258,-4.7286,-4.6947,-4.6943,-4.694,0,-4.6291,-4.642,-4.6541,-4.6571,-4.6629,-4.6687,-4.6715,-4.6763,-4.6813,-4.688,-4.6912,-4.6991,-4.7035,-4.7098,-4.7101,-4.7038,-4.7254,-4.7167,-4.7263,-4.7264,-4.731,-4.7307,-4.7585,-4.7341,-4.734,-4.734,-4.7339,0,-4.6503,-4.6612,-4.6614,-4.6689,-4.6811,-4.6801,-4.6923,-4.6945,-4.6989,-4.7069,-4.7038,-4.7115,-4.7114,-4.7194,-4.7198,-4.7322,-4.7342,-4.7352,-4.7351,-4.7354,-4.7353,-4.7384,-4.7371,-4.7347,-4.7345,-4.7344,-4.7343,0,-4.6704,-4.671,-4.6839,-4.6883,-4.6897,-4.6985,-4.7024,-4.7097,-4.7109,-4.7212,-4.7235,-4.7256,-4.7348,-4.7357,-4.7465,-4.7468,-4.7618,-4.7605,-4.7599,-4.7597,-4.7692,-4.7683,-4.7999,-4.804,-4.7769,-4.7772,-4.7774,0,-4.6838,-4.6921,-4.6973,-4.7023,-4.7053,-4.7135,-4.7185,-4.718,-4.7234,-4.7303,-4.7368,-4.7456,-4.7526,-4.7676,-4.7703,-4.7786,-4.7773,-4.7879,-4.7786,-4.7786,-4.7775,-4.777,-4.7779,-4.7896,-4.7899,-4.7902,-4.7904,0,-4.7076,-4.7075,-4.7147,-4.7221,-4.7281,-4.734,-4.7394,-4.7438,-4.744,-4.7503,-4.7595,-4.765,-4.7759,-4.7848,-4.793,-4.7961,-4.7935,-4.7933,-4.796,-4.7963,-4.7956,-4.7961,-4.7648,-4.7926,-4.7923,-4.7922,-4.7921,-4.792,-4.7248,-4.7319,-4.7367,-4.7449,-4.749,-4.7542,-4.7612,-4.7633,-4.7709,-4.7795,-4.7789,-4.7891,-4.7946,-4.8052,-4.809,-4.8172,-4.8137,-4.8176,-4.8186,-4.8195,-4.8205,-4.7944,-4.8187,-4.8187,-4.8186,-4.8186,-4.8185,0,-4.7484,-4.7513,-4.7588,-4.7665,-4.773,-4.7696,-4.7756,-4.7814,-4.7903,-4.7955,-4.8024,-4.8132,-4.8218,-4.8252,-4.8337,-4.8397,-4.8387,-4.8419,-4.8415,-4.8423,-4.8231,-4.8199,-4.8426,-4.8426,-4.8426,-4.8426,-4.8426,-4.8426,-4.7614,-4.7733,-4.7739,-4.7879,-4.7908,-4.8006,-4.8043,-4.8092,-4.8133,-4.8253,-4.8324,-4.8345,-4.8391,-4.8479,-4.8558,-4.8566,-4.8599,-4.8638,-4.864,-4.846,-4.8436,-4.8413,-4.8383,-4.8645,-4.8645,-4.8825,-4.8827,-4.8828]},{"header":{"parameterUnit":"m.s-1","parameterCategory":1,"la1":30.2991,"la2":30.254,"lo1":-89.0895,"lo2":-89.0444,"dy":0.0017,"dx":0.0017,"nx":28,"ny":28,"refTime":"2024-02-02T03:00:00:Z","depth":0,"parameterNumber":3,"parameterNumberName":"V-component_of_WINDS"},"data":[0,0,0,0,0,0,0,0,0,0,0,0,0,0,0,0,0,0,0,0,0,0,0,0,0,0,0,0,0,0,0,0,0,0,0,0,0,0,0,0,0,0,0,0,0,0,0,0,0,0,0,0,0,0,0,0,0,0,0.6051,0.6052,0,0.6164,0.6166,0.6167,0.6247,0.6247,0.6248,0.6249,0.6365,0.6367,0.637,0,0,0,0,0,0,0,0,0,0,0,0,0,0.5904,0.5906,0.605,0.6052,0.6053,0.6164,0.6166,0.6167,0.6247,0.6247,0.6248,0.6249,0.6364,0.6367,0.637,0,0,0,0,0,0,0,0,0,0,0,0,0,0.5988,0.5907,0.605,0.6106,0.6112,0.6164,0.6166,0.6168,0.6246,0.6247,0.6248,0.6249,0.6363,0.6367,0.637,0.6375,0,0,0.6382,0.6384,0,0,0,0,0,0,0,0,0.5983,0.5993,0.6097,0.6103,0.611,0.6192,0.6157,0.6237,0.6246,0.6196,0.6249,0.625,0.6307,0.6315,0.6334,0.638,0.6385,0.6382,0.6385,0.6386,0.6387,0,0,0,0,0,0,0,0.5977,0.5988,0.6096,0.6098,0.6106,0.6126,0.6139,0.6172,0.6244,0.62,0.6206,0.6218,0.631,0.6331,0.6338,0.6387,0.6382,0.6386,0.6388,0.6389,0.6446,0.6445,0,0,0,0,0,0,0.5962,0.5983,0.6092,0.6099,0.6047,0.6128,0.6143,0.6165,0.6244,0.6257,0.6218,0.6222,0.6324,0.6333,0.6342,0.6355,0.6386,0.639,0.6392,0.6446,0.6446,0.6445,0,0,0,0,0,0,0.5959,0.5971,0.6087,0.6043,0.6059,0.613,0.6154,0.6167,0.6187,0.6258,0.6271,0.6225,0.6325,0.6337,0.6367,0.636,0.6391,0.6395,0.6447,0.6446,0.6445,0.6378,0,0,0,0,0,0,0.5954,0.5969,0.5971,0.6042,0.6061,0.6109,0.6153,0.6168,0.6193,0.62,0.6268,0.628,0.6326,0.6361,0.6371,0.6365,0.6398,0.6448,0.6447,0.6446,0.6381,0.6375,0.6369,0,0,0,0,0,0.5949,0.5947,0.5971,0.5983,0.6065,0.6109,0.612,0.6173,0.6192,0.6195,0.6241,0.6278,0.6359,0.6363,0.6375,0.6371,0.6449,0.6447,0.6446,0.6384,0.6376,0.6369,0,0,0,0,0,0,0.5873,0.5957,0.5985,0.6006,0.605,0.6122,0.6127,0.6163,0.6202,0.6206,0.6271,0.6286,0.6309,0.6343,0.6347,0.6381,0.6409,0.6409,0.6358,0.6351,0.6345,0.6336,0.6401,0,0,0,0,0,0.5858,0.5887,0.5959,0.5971,0.5992,0.6056,0.6077,0.6114,0.6162,0.6181,0.6229,0.6274,0.631,0.6332,0.6369,0.6387,0.6404,0.639,0.6384,0.6379,0.6378,0.6392,0.6388,0.6439,0.6439,0.6439,0,0,0.5829,0.5879,0.5893,0.5957,0.5996,0.6024,0.6071,0.6098,0.6121,0.6185,0.6217,0.6254,0.6309,0.6333,0.6346,0.6362,0.6368,0.6376,0.6372,0.6374,0.639,0.6385,0.6381,0.6438,0.6438,0.6438,0,0,0.5791,0.5831,0.5846,0.5884,0.5942,0.5985,0.5988,0.6056,0.6084,0.6117,0.6166,0.6194,0.6254,0.6292,0.6319,0.6298,0.6334,0.6308,0.6276,0.6289,0.6285,0.6282,0.6276,0.6273,0.6307,0.6307,0.6307,0,0.5747,0.5792,0.5849,0.5875,0.5903,0.5964,0.598,0.6014,0.6081,0.6099,0.6116,0.6194,0.6235,0.6271,0.6266,0.6285,0.6292,0.63,0.6281,0.6279,0.6276,0.6271,0.6269,0.6304,0.6304,0.6304,0.6305,0,0.5736,0.5767,0.5772,0.5836,0.5865,0.5885,0.5947,0.5969,0.6005,0.6046,0.608,0.6132,0.6182,0.6193,0.6227,0.6234,0.6242,0.6269,0.6298,0.6267,0.6264,0.6262,0.6299,0.63,0.6301,0.6302,0,0,0.5652,0.5749,0.575,0.5781,0.585,0.5875,0.59,0.5949,0.5967,0.6012,0.6035,0.6085,0.6112,0.6142,0.6182,0.6193,0.6176,0.622,0.6222,0.6211,0.6188,0.6168,0.6164,0.62,0.62,0.62,0.6184,0,0.5625,0.5672,0.5726,0.5755,0.5785,0.5844,0.5866,0.5911,0.5951,0.5983,0.6028,0.6063,0.6094,0.6114,0.6127,0.6175,0.6172,0.6177,0.6223,0.6224,0.6208,0.6162,0.614,0.6123,0.6183,0.6182,0.6182,0,0.5599,0.5642,0.5674,0.5743,0.5758,0.5776,0.5827,0.5856,0.591,0.5938,0.5973,0.6016,0.6047,0.6072,0.6116,0.6118,0.6141,0.6167,0.6168,0.6174,0.6201,0.6169,0.6118,0.6116,0.618,0.618,0.6181,0,0.5536,0.5601,0.563,0.5654,0.5735,0.5747,0.5781,0.5836,0.5863,0.5907,0.5925,0.5972,0.5998,0.6034,0.6089,0.6102,0.6127,0.6157,0.6153,0.6151,0.6155,0.6154,0.6108,0.6168,0.6168,0.6168,0.6168,0,0.5501,0.5518,0.5603,0.562,0.5642,0.5705,0.5725,0.5765,0.5813,0.5841,0.5895,0.5919,0.599,0.6023,0.6066,0.6097,0.6108,0.6133,0.6144,0.6128,0.6125,0.6144,0.6147,0.6168,0.6168,0.6168,0.6168,0,0.5433,0.5491,0.5526,0.56,0.5619,0.5633,0.5697,0.5717,0.576,0.5794,0.5806,0.5875,0.5917,0.5975,0.6035,0.6064,0.6089,0.6107,0.6071,0.6078,0.6071,0.6071,0.6036,0.6036,0.6094,0.6093,0.6093,0,0.5407,0.5423,0.5499,0.5521,0.5554,0.5589,0.5617,0.568,0.5707,0.577,0.5783,0.5829,0.587,0.5935,0.599,0.6037,0.6057,0.6042,0.6064,0.6049,0.6058,0.6057,0.606,0.6036,0.6035,0.6034,0.6034,0,0.5355,0.5384,0.5422,0.5471,0.5503,0.5545,0.5589,0.5604,0.5676,0.5704,0.5748,0.578,0.5842,0.5888,0.5943,0.5979,0.6019,0.6026,0.6028,0.6012,0.5991,0.6004,0.6057,0.6027,0.6027,0.6028,0.6028,0.6028,0.5309,0.5326,0.5383,0.5425,0.5465,0.5506,0.5529,0.5576,0.5614,0.567,0.5705,0.5747,0.5803,0.5881,0.5916,0.5951,0.5967,0.5969,0.5969,0.5969,0.5965,0.5985,0.5961,0.5961,0.5961,0.5962,0.5962,0,0.5261,0.5301,0.5339,0.54,0.5433,0.5468,0.5519,0.5545,0.5582,0.5631,0.567,0.5722,0.5768,0.5828,0.5878,0.5895,0.5914,0.5906,0.5905,0.5914,0.5947,0.5941,0.5889,0.5889,0.5889,0.5889,0.5889,0.5889,0.524,0.5272,0.5307,0.536,0.5401,0.5443,0.547,0.5508,0.5548,0.5603,0.5641,0.568,0.5734,0.5789,0.5833,0.585,0.5866,0.5852,0.5875,0.5904,0.5911,0.5917,0.5912,0.5855,0.5855,0.5839,0.5839,0.5839]}]]